This is the latest recevied weather packets stored in our database for station/object M0OAB-1. If no packets are shown the sender has not sent any weather packets the latest 10 day(s).
| Time | Temp. | Humidity | Pressure | Rain* | Wind** | Luminosity | Snow |
|---|---|---|---|---|---|---|---|
| 1777568526 | 17.78° C | 31% | 1007.6 hPa | 0 mm | - | - | - |
| 1777567566 | 17.78° C | 32% | 1007.6 hPa | 0 mm | - | - | - |
| 1777566726 | 17.78° C | 31% | 1007.8 hPa | 0 mm | - | - | - |
| 1777565646 | 17.78° C | 30% | 1007.7 hPa | 0 mm | - | - | - |
| 1777564206 | 17.78° C | 30% | 1007.9 hPa | 0 mm | - | - | - |
| 1777563845 | 17.78° C | 32% | 1007.7 hPa | 0 mm | - | - | - |
| 1777563725 | 17.78° C | 32% | 1008 hPa | 0 mm | - | - | - |
| 1777563485 | 17.78° C | 33% | 1008.1 hPa | 0 mm | - | - | - |
| 1777563126 | 17.78° C | 33% | 1007.9 hPa | 0 mm | - | - | - |
| 1777562886 | 17.78° C | 33% | 1008 hPa | 0 mm | - | - | - |
| 1777561325 | 17.78° C | 34% | 1008.4 hPa | 0 mm | - | - | - |
| 1777561206 | 18.33° C | 34% | 1008.4 hPa | 0 mm | - | - | - |
| 1777561086 | 18.33° C | 34% | 1008.4 hPa | 0 mm | - | - | - |
| 1777560125 | 18.33° C | 37% | 1008.5 hPa | 0 mm | - | - | - |
| 1777558445 | 18.89° C | 33% | 1008.7 hPa | 0 mm | - | - | - |
| 1777557845 | 19.44° C | 36% | 1008.7 hPa | 0 mm | - | - | - |
| 1777557365 | 19.44° C | 33% | 1008.8 hPa | 0 mm | - | - | - |
| 1777556285 | 19.44° C | 34% | 1008.8 hPa | 0 mm | - | - | - |
| 1777556165 | 19.44° C | 33% | 1009 hPa | 0 mm | - | - | - |
| 1777554966 | 20° C | 38% | 1009.2 hPa | 0 mm | - | - | - |
| 1777554605 | 20° C | 39% | 1009.2 hPa | 0 mm | - | - | - |
| 1777553765 | 20° C | 37% | 1009.3 hPa | 0 mm | - | - | - |
| 1777553406 | 20° C | 38% | 1009.2 hPa | 0 mm | - | - | - |
| 1777553165 | 20° C | 40% | 1009 hPa | 0 mm | - | - | - |
| 1777552566 | 20° C | 36% | 1009.2 hPa | 0 mm | - | - | - |
* Rain latest hour (hover to see other rain measurements)
** Current wind speed in m/s (hover to see current wind gust speed)